Flag for Germany Weather past 2 weeks in Detmold, North Rhine-Westphalia, Germany

36 °F

Drizzle. Fog.

Feels Like: 31 °F
Forecast: 32 / 42 °F
Wind: 6 mph from Northwest

Location: Paderborn / Lippstadt

Current Time: Nov 26, 2015 at 6:57:30 AM

Latest Report: Nov 26, 2015 at 5:50 AM

Visibility: 1 mi

Pressure: 29.83 "Hg

Humidity: 100%

Dew point: 36 °F

Location of DetmoldLocation

Historic Weather in Detmold — Graph


Detmold temperature yesterday

Maximum temperature yesterday: 41 °F (at 12:50 PM)
Minimum temperature yesterday: 34 °F (at 12:20 AM)
Average temperature yesterday: 37 °F

Past Weeks' High & Low Weather Summary

High57 °F (Nov 17, 1:20 PM)100% (Nov 15, 3:20 PM)30.30 "Hg (Nov 15, 3:20 PM)
Low30 °F (Nov 22, 9:50 PM)56% (Nov 24, 10:50 AM)29.36 "Hg (Nov 21, 5:20 AM)
Average45 °F82%29.89 "Hg
* Reported Nov 11 5:20 AM — Nov 26 5:20 AM, Detmold, Weather by CustomWeather, © 2015

Note: Actual official high and low records may vary slightly from our data, if they occured in-between our weather recording intervals... More about our weather records


Detmold weather history for previous 24 hours

Time TempWeatherWind HumidityBarometerVisibility
5:20 AM
Thu, Nov 26
37 °FDrizzle. Fog.5 mph93%29.83 "Hg2 mi
4:50 AM37 °FDrizzle. Fog.6 mph93%29.83 "Hg2 mi
3:50 AM37 °FDrizzle. Fog.6 mph93%29.80 "Hg2 mi
3:20 AM37 °FPassing clouds.6 mph100%29.80 "Hg4 mi
2:50 AM37 °FPassing clouds.7 mph100%29.80 "Hg4 mi
2:20 AM37 °FPassing clouds.7 mph100%29.77 "Hg4 mi
1:50 AM37 °FPassing clouds.7 mph100%29.77 "Hg4 mi
1:20 AM37 °FFog.7 mph100%29.77 "Hg2 mi
12:50 AM37 °FDrizzle. Fog.7 mph100%29.77 "Hg2 mi
12:20 AM37 °FDrizzle. Fog.7 mph100%29.74 "Hg2 mi
11:50 PM
Wed, Nov 25
37 °FDrizzle. Fog.6 mph100%29.74 "Hg2 mi
11:20 PM37 °FDrizzle. Fog.8 mph100%29.74 "Hg2 mi
10:50 PM37 °FFog.8 mph100%29.74 "Hg2 mi
10:20 PM37 °FFog.7 mph100%29.74 "Hg2 mi
9:50 PM37 °FFog.7 mph100%29.71 "Hg2 mi
9:20 PM37 °FPassing clouds.3 mph100%29.71 "HgN/A
8:50 PM37 °FPassing clouds.3 mph100%29.71 "HgN/A
8:20 PM37 °FLight rain. Passing clouds.7 mph93%29.71 "HgN/A
7:50 PM39 °FLight rain. Partly cloudy.8 mph93%29.68 "Hg4 mi
7:20 PM39 °FPartly cloudy.7 mph93%29.68 "HgN/A
6:50 PM39 °FPartly cloudy.7 mph93%29.68 "HgN/A
6:20 PM39 °FPartly cloudy.6 mph93%29.65 "HgN/A
5:50 PM39 °FPartly cloudy.5 mph93%29.65 "HgN/A
5:20 PM39 °FPartly cloudy.6 mph93%29.65 "Hg5 mi
4:50 PM39 °FPartly cloudy.5 mph93%29.65 "Hg4 mi
4:20 PM39 °FBroken clouds.7 mph93%29.65 "Hg4 mi
3:50 PM39 °FSprinkles. Broken clouds.7 mph93%29.62 "HgN/A
3:20 PM39 °FSprinkles. Broken clouds.7 mph93%29.62 "HgN/A
2:50 PM39 °FSprinkles. Broken clouds.9 mph93%29.62 "Hg4 mi
2:20 PM41 °FBroken clouds.10 mph87%29.62 "HgN/A
1:50 PM41 °FBroken clouds.14 mph87%29.62 "HgN/A
1:20 PM41 °FPartly sunny.10 mph87%29.62 "HgN/A
12:50 PM41 °FPartly sunny.13 mph87%29.65 "HgN/A
12:20 PM39 °FPartly sunny.14 mph93%29.65 "HgN/A
11:50 AM39 °FPartly sunny.9 mph93%29.65 "HgN/A
11:20 AM39 °FPartly sunny.12 mph93%29.65 "HgN/A
10:50 AM37 °FDrizzle. Partly sunny.10 mph93%29.65 "HgN/A
10:20 AM37 °FDrizzle. Partly sunny.12 mph93%29.65 "HgN/A
9:50 AM37 °FSprinkles. Broken clouds.12 mph93%29.65 "Hg4 mi
9:20 AM37 °FPartly sunny.12 mph93%29.65 "HgN/A
8:50 AM37 °FPartly sunny.12 mph87%29.65 "HgN/A
7:50 AM36 °FPassing clouds.14 mph87%29.65 "HgN/A
7:20 AM36 °FPassing clouds.15 mph87%29.65 "HgN/A
6:50 AM36 °FPassing clouds.15 mph93%29.65 "HgN/A
6:20 AM36 °FPassing clouds.13 mph93%29.65 "HgN/A
Weather by CustomWeather, © 2015

See weather overviewHow to use our weather pages